EW7835 Weather Reports


Display with metric or nautical units.
time (UTC)temp
F
wind
direction
speed
MPH
gust
MPH
rain 1hr
in
rain 24hr
in
rain mn
in
humidity
%
barometer
mb
20260904003030 70 0.0 0.0 0.00 0.00 0.00 19 1008.1
20260904001529 71 0.0 0.0 0.00 0.00 0.00 23 1008.1
20260904000019 72 0.0 0.0 0.00 0.00 0.00 29 1007.8
20260903234515 73 0.0 0.0 0.00 0.00 0.00 37 1007.6
20260903233010 73 0.0 0.0 0.00 0.00 0.00 40 1007.5
20260903231506 74 0.0 0.0 0.00 0.00 0.00 41 1007.3
20260903230004 75 0.0 0.0 0.00 0.00 0.00 40 1007.5
20260903224623 75 0.0 0.0 0.00 0.00 0.00 44 1007.6
20260903223127 76 0.0 0.0 0.00 0.00 0.00 47 1007.7
20260903221545 77 0.0 0.0 0.00 0.00 0.00 49 1007.4
20260903220042 78 0.0 0.0 0.00 0.00 0.00 49 1007.5
20260903214508 79 0.0 0.0 0.00 0.00 0.00 49 1007.5
20260903213003 79 0.0 0.0 0.00 0.00 0.00 49 1007.3
20260903211556 79 0.0 0.0 0.00 0.00 0.00 49 1007.6
20260903210113 79 0.0 0.0 0.00 0.00 0.00 48 1007.6
20260903204548 79 0.0 0.0 0.00 0.00 0.00 49 1007.7
20260903203043 79 0.0 0.0 0.00 0.00 0.00 49 1007.7
20260903201537 80 0.0 0.0 0.00 0.00 0.00 48 1007.5
20260903200033 79 0.0 0.0 0.00 0.00 0.00 45 1007.6
20260903194538 79 0.0 0.0 0.00 0.00 0.00 44 1007.7
20260903193023 79 0.0 0.0 0.00 0.00 0.00 43 1008.2
20260903191516 79 0.0 0.0 0.00 0.00 0.00 41 1007.9
20260903190012 79 0.0 0.0 0.00 0.00 0.00 40 1008.0
20260903184508 78 0.0 0.0 0.00 0.00 0.00 15 1008.2
20260903183003 78 0.0 0.0 0.00 0.00 0.00 16 1008.3
20260903181558 77 0.0 0.0 0.00 0.00 0.00 1 1008.4
20260903180053 76 0.0 0.0 0.00 0.00 0.00 1 1008.5
20260903174548 74 0.0 0.0 0.00 0.00 0.00 1 1008.5
20260903173045 74 0.0 0.0 0.00 0.00 0.00 1 1008.8
20260903171508 74 0.0 0.0 0.00 0.00 0.00 1 1008.9
20260903170008 73 0.0 0.0 0.00 0.00 0.00 1 1008.8
20260903164557 73 0.0 0.0 0.00 0.00 0.00 1 1008.8
20260903163053 72 0.0 0.0 0.00 0.00 0.00 1 1008.9
20260903161548 72 0.0 0.0 0.00 0.00 0.00 1 1009.1
20260903160048 71 0.0 0.0 0.00 0.00 0.00 1 1009.3
20260903154538 71 0.0 0.0 0.00 0.00 0.00 1 1009.3
20260903153033 71 0.0 0.0 0.00 0.00 0.00 1 1009.4
20260903151528 71 0.0 0.0 0.00 0.00 0.00 1 1009.3
20260903150025 71 0.0 0.0 0.00 0.00 0.00 1 1009.4
20260903144532 70 0.0 0.0 0.00 0.00 0.00 1 1009.4
20260903143013 70 0.0 0.0 0.00 0.00 0.00 1 1009.4
20260903141511 69 0.0 0.0 0.00 0.00 0.00 1 1009.3
20260903140004 68 0.0 0.0 0.00 0.00 0.00 1 1009.4
20260903134601 67 0.0 0.0 0.00 0.00 0.00 1 1009.3
20260903133054 66 0.0 0.0 0.00 0.00 0.00 1 1009.3
20260903131604 66 0.0 0.0 0.00 0.00 0.00 1 1009.2
20260903130050 65 0.0 0.0 0.00 0.00 0.00 1 1009.5
20260903124511 65 0.0 0.0 0.00 0.00 0.00 1 1009.8
20260903123010 65 0.0 0.0 0.00 0.00 0.00 1 1009.7
20260903121628 64 0.0 0.0 0.00 0.00 0.00 1 1009.7
20260903120029 64 0.0 0.0 0.00 0.00 0.00 1 1009.7
20260903114524 64 0.0 0.0 0.00 0.00 0.00 1 1009.7
20260903113018 63 0.0 0.0 0.00 0.00 0.00 1 1009.8
20260903111513 63 0.0 0.0 0.00 0.00 0.00 1 1009.8
20260903110008 63 0.0 0.0 0.00 0.00 0.00 1 1010.0
20260903104505 63 0.0 0.0 0.00 0.00 0.00 1 1009.8
20260903103058 63 0.0 0.0 0.00 0.00 0.00 1 1009.7
20260903101554 63 0.0 0.0 0.00 0.00 0.00 1 1009.8
20260903100049 63 0.0 0.0 0.00 0.00 0.00 1 1009.7
20260903094552 63 0.0 0.0 0.00 0.00 0.00 1 1009.7
20260903093038 63 0.0 0.0 0.00 0.00 0.00 1 1009.6
20260903091542 63 0.0 0.0 0.00 0.00 0.00 1 1009.7
20260903090029 63 0.0 0.0 0.00 0.00 0.00 1 1009.6
20260903084524 63 0.0 0.0 0.00 0.00 0.00 1 1009.7
20260903083017 63 0.0 0.0 0.00 0.00 0.00 1 1009.7
20260903081519 63 0.0 0.0 0.00 0.00 0.00 1 1009.7
20260903080009 63 0.0 0.0 0.00 0.00 0.00 1 1009.8
20260903074505 63 0.0 0.0 0.00 0.00 0.00 1 1009.8
20260903073101 63 0.0 0.0 0.00 0.00 0.00 1 1010.0
20260903071554 63 0.0 0.0 0.00 0.00 0.00 1 1009.9
20260903070050 63 0.0 0.0 0.00 0.00 0.00 1 1009.9
20260903064545 63 0.0 0.0 0.00 0.00 0.00 1 1009.8
20260903063042 63 0.0 0.0 0.00 0.00 0.00 1 1009.9
20260903061535 63 0.0 0.0 0.00 0.00 0.00 1 1009.7
20260903060029 63 0.0 0.0 0.00 0.00 0.00 1 1009.9
20260903054529 63 0.0 0.0 0.00 0.00 0.00 1 1009.9
20260903053058 63 0.0 0.0 0.00 0.00 0.00 1 1010.1
20260903051547 63 0.0 0.0 0.00 0.00 0.00 1 1010.2
20260903050044 63 0.0 0.0 0.00 0.00 0.00 1 1010.4
20260903044539 63 0.0 0.0 0.00 0.00 0.00 1 1010.4
20260903043031 63 0.0 0.0 0.00 0.00 0.00 1 1010.3
20260903041529 63 0.0 0.0 0.00 0.00 0.00 1 1009.8
20260903040053 63 0.0 0.0 0.00 0.00 0.00 1 1009.0
20260903034550 63 0.0 0.0 0.00 0.00 0.00 1 1010.7
20260903033045 63 0.0 0.0 0.00 0.00 0.00 1 1011.1
20260903031542 63 0.0 0.0 0.00 0.00 0.00 1 1011.5
20260903030047 64 0.0 0.0 0.00 0.00 0.00 1 1011.6
20260903024536 64 0.0 0.0 0.00 0.00 0.00 1 1011.7
20260903023008 64 0.0 0.0 0.00 0.00 0.00 1 1011.8
20260903021507 64 0.0 0.0 0.00 0.00 0.00 1 1011.5
20260903020010 64 0.0 0.0 0.00 0.00 0.00 1 1012.3
20260903014505 64 0.0 0.0 0.00 0.00 0.00 1 1012.7
20260903013002 64 0.0 0.0 0.00 0.00 0.00 1 1012.8
20260903011502 64 0.0 0.0 0.00 0.00 0.00 1 1012.8
20260903004558 64 0.0 0.0 0.00 0.00 0.00 1 1013.2